EZY65RP EGCC-EGNS

Flight info

Callsign EZY65RP
Flight time 0h 23m
Altitude 16000
Route EKLAD Y53 WAL M146 LUSOD DCT IOM
Aircraft A320/M-SDE3FGHIRWY/LB1

Departure

Time 2026-05-07 19:14
Airport Manchester Airport (EGCC)

Arrival

Time 2026-05-07 19:38
Airport Isle of Man Airport (EGNS)
Time Latitude Longitude Altitude Speed Heading
2026-05-07 18:35 53.36891 -2.28789 255 ft 0 kts 135°
2026-05-07 19:00 53.36902 -2.28807 255 ft 4 kts 135°
2026-05-07 19:00 53.36916 -2.28832 255 ft 4 kts 154°
2026-05-07 19:00 53.36934 -2.28828 255 ft 3 kts 224°
2026-05-07 19:00 53.36952 -2.28799 255 ft 2 kts 225°
2026-05-07 19:01 53.36953 -2.28796 255 ft 0 kts 225°
2026-05-07 19:04 53.36932 -2.28832 255 ft 7 kts 225°
2026-05-07 19:05 53.36897 -2.28890 255 ft 10 kts 225°
2026-05-07 19:05 53.36851 -2.28966 255 ft 9 kts 225°
2026-05-07 19:05 53.36796 -2.29024 255 ft 11 kts 201°
2026-05-07 19:05 53.36725 -2.29007 255 ft 12 kts 136°
2026-05-07 19:06 53.36666 -2.28916 255 ft 11 kts 148°
2026-05-07 19:06 53.36555 -2.28723 255 ft 12 kts 129°
2026-05-07 19:06 53.36497 -2.28618 255 ft 13 kts 135°
2026-05-07 19:07 53.36428 -2.28511 255 ft 14 kts 144°
2026-05-07 19:07 53.36332 -2.28445 255 ft 16 kts 145°
2026-05-07 19:07 53.36250 -2.28309 255 ft 17 kts 135°
2026-05-07 19:07 53.36169 -2.28172 255 ft 17 kts 134°
2026-05-07 19:08 53.36090 -2.28048 255 ft 16 kts 138°
2026-05-07 19:08 53.36009 -2.27927 255 ft 16 kts 139°
2026-05-07 19:08 53.35935 -2.27855 255 ft 11 kts 166°
2026-05-07 19:08 53.35868 -2.27832 254 ft 11 kts 149°
2026-05-07 19:09 53.35810 -2.27726 252 ft 12 kts 131°
2026-05-07 19:09 53.35731 -2.27641 249 ft 16 kts 158°
2026-05-07 19:09 53.35642 -2.27551 246 ft 13 kts 141°
2026-05-07 19:09 53.35629 -2.27437 246 ft 12 kts 55°
2026-05-07 19:10 53.35680 -2.27331 255 ft 13 kts 51°
2026-05-07 19:10 53.35745 -2.27196 255 ft 14 kts 51°
2026-05-07 19:10 53.35803 -2.27072 255 ft 13 kts 58°
2026-05-07 19:10 53.35853 -2.26940 256 ft 16 kts 53°
2026-05-07 19:11 53.35916 -2.26798 256 ft 14 kts 58°
2026-05-07 19:11 53.35977 -2.26659 256 ft 16 kts 50°
2026-05-07 19:11 53.36042 -2.26525 256 ft 15 kts 51°
2026-05-07 19:11 53.36101 -2.26404 256 ft 11 kts 51°
2026-05-07 19:12 53.36134 -2.26335 255 ft 5 kts 54°
2026-05-07 19:12 53.36140 -2.26282 255 ft 6 kts 99°
2026-05-07 19:12 53.36094 -2.26187 256 ft 12 kts 141°
2026-05-07 19:12 53.36035 -2.26142 258 ft 8 kts 198°
2026-05-07 19:13 53.36008 -2.26185 260 ft 1 kts 231°
2026-05-07 19:13 53.36008 -2.26186 260 ft 0 kts 231°
2026-05-07 19:14 53.35898 -2.26412 267 ft 61 kts 231°
2026-05-07 19:14 53.35484 -2.27267 249 ft 126 kts 231°
2026-05-07 19:14 53.34818 -2.28625 358 ft 165 kts 230°
2026-05-07 19:14 53.34107 -2.30109 1090 ft 162 kts 229°
2026-05-07 19:15 53.33399 -2.31599 1800 ft 168 kts 227°
2026-05-07 19:15 53.32632 -2.33238 2177 ft 191 kts 233°
2026-05-07 19:15 53.32251 -2.35521 2522 ft 224 kts 266°
2026-05-07 19:15 53.32309 -2.38274 3003 ft 248 kts 269°
2026-05-07 19:16 53.32392 -2.41223 3820 ft 257 kts 269°
2026-05-07 19:16 53.32368 -2.44215 4802 ft 258 kts 256°
2026-05-07 19:16 53.31917 -2.47120 5783 ft 258 kts 251°
2026-05-07 19:16 53.31407 -2.50008 6782 ft 260 kts 251°
2026-05-07 19:17 53.30869 -2.52913 7697 ft 263 kts 250°
2026-05-07 19:17 53.30318 -2.55841 8649 ft 265 kts 251°
2026-05-07 19:17 53.29772 -2.58758 9570 ft 269 kts 250°
2026-05-07 19:17 53.29227 -2.61690 10267 ft 281 kts 250°
2026-05-07 19:18 53.28622 -2.64938 10546 ft 305 kts 250°
2026-05-07 19:18 53.27970 -2.68441 10882 ft 325 kts 250°
2026-05-07 19:18 53.27289 -2.72099 11527 ft 333 kts 251°
2026-05-07 19:18 53.26637 -2.75846 12293 ft 339 kts 256°
2026-05-07 19:19 53.26425 -2.79804 13062 ft 347 kts 270°
2026-05-07 19:19 53.26798 -2.83810 13833 ft 354 kts 284°
2026-05-07 19:19 53.27764 -2.87620 14487 ft 361 kts 298°
2026-05-07 19:19 53.29224 -2.91079 15141 ft 366 kts 304°
2026-05-07 19:20 53.30761 -2.94498 15762 ft 370 kts 304°
2026-05-07 19:20 53.32310 -2.97945 15977 ft 371 kts 304°
2026-05-07 19:20 53.33883 -3.01469 16037 ft 387 kts 304°
2026-05-07 19:20 53.35506 -3.05131 16025 ft 394 kts 304°
2026-05-07 19:21 53.37141 -3.08826 16029 ft 396 kts 304°
2026-05-07 19:21 53.38791 -3.12521 16025 ft 396 kts 306°
2026-05-07 19:21 53.40652 -3.15930 16022 ft 398 kts 312°
2026-05-07 19:21 53.42598 -3.19229 16021 ft 398 kts 312°
2026-05-07 19:22 53.44542 -3.22531 16014 ft 398 kts 312°
2026-05-07 19:22 53.46480 -3.25835 16013 ft 398 kts 312°
2026-05-07 19:22 53.48421 -3.29149 16013 ft 397 kts 312°
2026-05-07 19:22 53.50355 -3.32456 16007 ft 397 kts 312°
2026-05-07 19:23 53.52293 -3.35777 16006 ft 397 kts 312°
2026-05-07 19:23 53.54223 -3.39091 16005 ft 397 kts 312°
2026-05-07 19:23 53.56157 -3.42416 16004 ft 397 kts 311°
2026-05-07 19:23 53.58023 -3.45823 16002 ft 396 kts 306°
2026-05-07 19:24 53.59632 -3.49570 16001 ft 395 kts 303°
2026-05-07 19:24 53.61217 -3.53339 16001 ft 392 kts 303°
2026-05-07 19:24 53.62760 -3.56998 15973 ft 375 kts 303°
2026-05-07 19:24 53.64256 -3.60546 15593 ft 368 kts 303°
2026-05-07 19:25 53.65729 -3.64051 15132 ft 365 kts 302°
2026-05-07 19:25 53.67192 -3.67537 14617 ft 363 kts 302°
2026-05-07 19:25 53.68646 -3.71008 14211 ft 361 kts 302°
2026-05-07 19:25 53.70091 -3.74461 13832 ft 359 kts 302°
2026-05-07 19:26 53.71507 -3.77851 13406 ft 357 kts 302°
2026-05-07 19:26 53.72932 -3.81276 12976 ft 355 kts 302°
2026-05-07 19:26 53.74346 -3.84677 12554 ft 353 kts 302°
2026-05-07 19:26 53.75747 -3.88053 12134 ft 348 kts 302°
2026-05-07 19:27 53.77124 -3.91374 11722 ft 342 kts 302°
2026-05-07 19:27 53.78477 -3.94645 11314 ft 337 kts 302°
2026-05-07 19:27 53.79810 -3.97874 10907 ft 332 kts 302°
2026-05-07 19:27 53.81123 -4.01053 10508 ft 328 kts 302°
2026-05-07 19:28 53.82409 -4.04164 10120 ft 315 kts 302°
2026-05-07 19:28 53.83637 -4.07129 9709 ft 300 kts 302°
2026-05-07 19:28 53.84804 -4.09964 9276 ft 287 kts 302°
2026-05-07 19:28 53.85940 -4.12734 8843 ft 277 kts 302°
2026-05-07 19:29 53.87004 -4.15330 8415 ft 267 kts 302°
2026-05-07 19:29 53.88053 -4.17894 8011 ft 265 kts 302°
2026-05-07 19:29 53.89102 -4.20470 7601 ft 265 kts 301°
2026-05-07 19:29 53.90148 -4.23043 7186 ft 266 kts 301°
2026-05-07 19:30 53.91198 -4.25626 6797 ft 266 kts 301°
2026-05-07 19:30 53.92247 -4.28205 6403 ft 266 kts 301°
2026-05-07 19:30 53.93410 -4.30644 5981 ft 268 kts 314°
2026-05-07 19:30 53.95029 -4.32216 5559 ft 273 kts 343°
2026-05-07 19:31 53.96928 -4.32365 5149 ft 276 kts
2026-05-07 19:31 53.98820 -4.31840 4740 ft 275 kts
2026-05-07 19:31 54.00693 -4.31241 4314 ft 271 kts
2026-05-07 19:31 54.02505 -4.30644 3918 ft 259 kts
2026-05-07 19:32 54.04232 -4.30063 3611 ft 247 kts
2026-05-07 19:32 54.05881 -4.29493 3306 ft 237 kts
2026-05-07 19:32 54.07479 -4.29118 2995 ft 227 kts 352°
2026-05-07 19:32 54.08891 -4.29996 2675 ft 211 kts 315°
2026-05-07 19:33 54.09751 -4.31889 2405 ft 196 kts 293°
2026-05-07 19:33 54.10347 -4.33906 2103 ft 186 kts 290°
2026-05-07 19:33 54.10881 -4.35782 1996 ft 165 kts 289°
2026-05-07 19:33 54.11261 -4.37457 2000 ft 142 kts 272°
2026-05-07 19:34 54.11224 -4.39054 2001 ft 132 kts 252°
2026-05-07 19:34 54.11036 -4.40572 2004 ft 131 kts 253°
2026-05-07 19:34 54.10851 -4.42081 2006 ft 130 kts 253°
2026-05-07 19:34 54.10666 -4.43581 2006 ft 129 kts 252°
2026-05-07 19:35 54.10481 -4.45076 1928 ft 129 kts 252°
2026-05-07 19:35 54.10299 -4.46549 1802 ft 128 kts 253°
2026-05-07 19:35 54.10115 -4.48030 1648 ft 128 kts 252°
2026-05-07 19:35 54.09932 -4.49510 1480 ft 128 kts 252°
2026-05-07 19:36 54.09745 -4.51016 1314 ft 128 kts 252°
2026-05-07 19:36 54.09561 -4.52492 1131 ft 129 kts 253°
2026-05-07 19:36 54.09374 -4.53997 950 ft 132 kts 253°
2026-05-07 19:36 54.09183 -4.55529 759 ft 134 kts 252°
2026-05-07 19:37 54.08991 -4.57099 586 ft 137 kts 255°
2026-05-07 19:37 54.08791 -4.58712 374 ft 139 kts 252°
2026-05-07 19:37 54.08586 -4.60342 168 ft 143 kts 256°
2026-05-07 19:37 54.08385 -4.61978 53 ft 131 kts 250°
2026-05-07 19:38 54.08223 -4.63209 40 ft 71 kts 258°
2026-05-07 19:38 54.08155 -4.63761 36 ft 27 kts 258°
2026-05-07 19:38 54.08208 -4.63900 38 ft 14 kts 359°
2026-05-07 19:38 54.08258 -4.63841 44 ft 10 kts 53°
2026-05-07 19:39 54.08304 -4.63706 46 ft 12 kts 62°
2026-05-07 19:39 54.08337 -4.63590 46 ft 10 kts 72°